| time (UTC) | temp F | wind direction | speed MPH | gust MPH | rain 1hr in | rain 24hr in | rain mn in | humidity % | barometer mb |
| 20260505031559 | 67 | 268 | 0.0 | 2.0 | 0.00 | 0.00 | 0.00 | 63 | 1005.6 |
| 20260505030058 | 67 | 283 | 0.0 | 4.0 | 0.00 | 0.00 | 0.00 | 62 | 1005.6 |
| 20260505024554 | 67 | 245 | 0.0 | 2.0 | 0.00 | 0.00 | 0.00 | 62 | 1005.5 |
| 20260505023052 | 67 | 245 | 0.0 | 3.0 | 0.00 | 0.00 | 0.00 | 62 | 1005.2 |
| 20260505021551 | 67 | 246 | 0.0 | 3.0 | 0.00 | 0.00 | 0.00 | 61 | 1005.0 |
| 20260505020152 | 68 | 259 | 0.0 | 2.0 | 0.00 | 0.00 | 0.00 | 61 | 1004.8 |
| 20260505014603 | 68 | 264 | 0.0 | 2.0 | 0.00 | 0.00 | 0.00 | 59 | 1004.8 |
| 20260505013049 | 68 | 245 | 0.0 | 3.0 | 0.00 | 0.00 | 0.00 | 58 | 1004.6 |
| 20260505011551 | 68 | 236 | 0.0 | 2.0 | 0.00 | 0.00 | 0.00 | 57 | 1004.5 |
| 20260505010047 | 69 | 248 | 0.0 | 1.0 | 0.00 | 0.00 | 0.00 | 57 | 1004.4 |
| 20260505004552 | 70 | 249 | 0.0 | 3.0 | 0.00 | 0.00 | 0.00 | 54 | 1004.3 |
| 20260505003045 | 70 | 264 | 0.0 | 3.0 | 0.00 | 0.00 | 0.00 | 52 | 1004.5 |
| 20260505001545 | 71 | 248 | 1.0 | 5.0 | 0.00 | 0.00 | 0.00 | 51 | 1004.5 |
| 20260505000046 | 71 | 262 | 0.0 | 3.0 | 0.00 | 0.00 | 0.00 | 53 | 1004.6 |
| 20260504234541 | 70 | 271 | 0.0 | 4.0 | 0.00 | 0.00 | 0.00 | 59 | 1004.9 |
| 20260504233041 | 71 | 250 | 0.0 | 2.0 | 0.00 | 0.00 | 0.00 | 57 | 1004.9 |
| 20260504231540 | 71 | 279 | 0.0 | 2.0 | 0.00 | 0.00 | 0.00 | 56 | 1004.9 |
| 20260504230037 | 71 | 255 | 0.0 | 5.0 | 0.00 | 0.00 | 0.00 | 56 | 1005.2 |
| 20260504224538 | 70 | 244 | 0.0 | 2.0 | 0.00 | 0.00 | 0.00 | 58 | 1005.6 |
| 20260504223033 | 71 | 255 | 0.0 | 4.0 | 0.00 | 0.00 | 0.00 | 57 | 1005.7 |
| 20260504221531 | 71 | 257 | 0.0 | 2.0 | 0.00 | 0.00 | 0.00 | 58 | 1005.6 |
| 20260504220030 | 70 | 271 | 0.0 | 2.0 | 0.00 | 0.00 | 0.00 | 57 | 1005.7 |
| 20260504214529 | 71 | 276 | 0.0 | 6.0 | 0.00 | 0.00 | 0.00 | 55 | 1006.0 |
| 20260504213026 | 70 | 262 | 0.0 | 4.0 | 0.00 | 0.00 | 0.00 | 58 | 1006.1 |
| 20260504211524 | 69 | 272 | 0.0 | 4.0 | 0.00 | 0.00 | 0.00 | 60 | 1006.2 |
| 20260504210035 | 68 | 264 | 1.0 | 4.0 | 0.00 | 0.00 | 0.00 | 62 | 1006.1 |
| 20260504204530 | 68 | 250 | 0.0 | 2.0 | 0.00 | 0.00 | 0.00 | 66 | 1006.8 |
| 20260504203025 | 67 | 264 | 0.0 | 2.0 | 0.00 | 0.00 | 0.00 | 69 | 1007.1 |
| 20260504201520 | 66 | 243 | 0.0 | 5.0 | 0.00 | 0.00 | 0.00 | 72 | 1007.3 |
| 20260504200019 | 65 | 270 | 0.0 | 3.0 | 0.00 | 0.00 | 0.00 | 74 | 1007.2 |
| 20260504194518 | 64 | 255 | 0.0 | 2.0 | 0.00 | 0.00 | 0.00 | 75 | 1007.3 |
| 20260504193017 | 64 | 254 | 0.0 | 0.0 | 0.00 | 0.00 | 0.00 | 78 | 1007.8 |
| 20260504191515 | 65 | 278 | 0.0 | 2.0 | 0.00 | 0.00 | 0.00 | 71 | 1008.2 |
| 20260504190014 | 69 | 264 | 0.0 | 3.0 | 0.00 | 0.00 | 0.00 | 60 | 1008.6 |
| 20260504184513 | 69 | 252 | 1.0 | 6.0 | 0.00 | 0.00 | 0.00 | 59 | 1008.0 |
| 20260504183014 | 70 | 269 | 1.0 | 5.0 | 0.00 | 0.00 | 0.00 | 59 | 1007.6 |
| 20260504181513 | 70 | 330 | 0.0 | 8.0 | 0.00 | 0.00 | 0.00 | 58 | 1007.5 |
| 20260504180011 | 70 | 217 | 2.0 | 6.0 | 0.00 | 0.00 | 0.00 | 58 | 1007.3 |
| 20260504174510 | 69 | 354 | 1.0 | 5.0 | 0.00 | 0.00 | 0.00 | 60 | 1007.3 |
| 20260504173008 | 70 | 265 | 1.0 | 9.0 | 0.00 | 0.00 | 0.00 | 59 | 1007.5 |
| 20260504171506 | 69 | 262 | 1.0 | 5.0 | 0.00 | 0.00 | 0.00 | 58 | 1007.8 |
| 20260504081556 | 50 | 263 | 0.0 | 3.0 | 0.00 | 0.00 | 0.00 | 69 | 1010.4 |
| 20260504044525 | 53 | 249 | 1.0 | 5.0 | 0.00 | 0.00 | 0.00 | 60 | 1012.3 |
| 20260504043022 | 53 | 236 | 0.0 | 3.0 | 0.00 | 0.00 | 0.00 | 60 | 1012.4 |
| 20260504041536 | 53 | 257 | 0.0 | 2.0 | 0.00 | 0.00 | 0.00 | 60 | 1012.5 |
| 20260504040022 | 53 | 278 | 0.0 | 6.0 | 0.00 | 0.00 | 0.00 | 60 | 1012.7 |
| 20260504034516 | 53 | 247 | 0.0 | 1.0 | 0.00 | 0.00 | 0.00 | 62 | 1012.8 |
| 20260504033017 | 52 | 245 | 0.0 | 3.0 | 0.00 | 0.00 | 0.00 | 63 | 1012.9 |